�������r�C�����j�^�v���󋵏��
Date,Time,5�C6���@���p�r�C��,����,����(m/s)
2021/05/03,00:00,4.0,�k��,6.9
2021/05/03,00:10,4.0,�k��,8.0
2021/05/03,00:20,3.9,�k��,9.5
2021/05/03,00:30,4.1,�k��,9.3
2021/05/03,00:40,4.0,�k��,10.5
2021/05/03,00:50,3.8,�k��,9.2
2021/05/03,01:00,3.9,�k��,8.6
2021/05/03,01:10,3.8,�k��,8.7
2021/05/03,01:20,4.0,�k��,10.0
2021/05/03,01:30,3.9,�k��,6.9
2021/05/03,01:40,3.9,�k��,6.9
2021/05/03,01:50,4.0,�k��,6.0
2021/05/03,02:00,3.8,�k��,7.5
2021/05/03,02:10,3.9,�k��,8.2
2021/05/03,02:20,4.0,�k��,8.8
2021/05/03,02:30,3.8,�k��,7.9
2021/05/03,02:40,4.1,�k��,6.1
2021/05/03,02:50,3.8,�k��,7.4
2021/05/03,03:00,3.8,�k��,5.8
2021/05/03,03:10,3.8,���k��,6.3
2021/05/03,03:20,4.0,�k��,7.0
2021/05/03,03:30,3.9,�k�k��,5.5
2021/05/03,03:40,3.9,�k�k��,4.4
2021/05/03,03:50,4.0,�k�k��,4.6
2021/05/03,04:00,4.0,�k�k��,4.0
2021/05/03,04:10,3.9,�k��,3.1
2021/05/03,04:20,4.0,�k��,1.5
2021/05/03,04:30,4.0,�k��,3.1
2021/05/03,04:40,3.9,���k��,4.7
2021/05/03,04:50,3.9,���k��,4.8
2021/05/03,05:00,3.9,���k��,6.6
2021/05/03,05:10,3.8,��,7.7
2021/05/03,05:20,3.9,��,6.5
2021/05/03,05:30,3.9,��,6.0
2021/05/03,05:40,4.1,��,6.2
2021/05/03,05:50,3.8,��,7.3
2021/05/03,06:00,3.8,��,6.7
2021/05/03,06:10,4.0,��,4.6
2021/05/03,06:20,3.8,��,4.3
2021/05/03,06:30,4.0,��,4.1
2021/05/03,06:40,3.9,��,3.8
2021/05/03,06:50,3.8,���k��,3.3
2021/05/03,07:00,4.0,���k��,2.6
2021/05/03,07:10,3.9,��,3.3
2021/05/03,07:20,3.9,���k��,4.8
2021/05/03,07:30,3.8,��,5.8
2021/05/03,07:40,3.9,��,7.2
2021/05/03,07:50,3.9,��,8.2
2021/05/03,08:00,3.9,��,8.4
2021/05/03,08:10,4.0,���k��,5.5
2021/05/03,08:20,3.9,��,8.3
2021/05/03,08:30,4.1,��,9.8
2021/05/03,08:40,4.0,��,9.1
2021/05/03,08:50,4.1,���쐼,9.4
2021/05/03,09:00,3.8,���쐼,9.5
2021/05/03,09:10,3.8,���쐼,10.2
2021/05/03,09:20,3.9,��,8.3
2021/05/03,09:30,4.0,��,8.9
2021/05/03,09:40,4.0,��,7.7
2021/05/03,09:50,4.1,��,9.2
2021/05/03,10:00,4.0,��,9.1
2021/05/03,10:10,3.9,��,8.5
2021/05/03,10:20,3.9,��,12.1
2021/05/03,10:30,3.9,��,11.1
2021/05/03,10:40,4.0,��,10.2
2021/05/03,10:50,4.0,��,11.8
2021/05/03,11:00,3.8,��,9.7
2021/05/03,11:10,4.0,��,8.2
2021/05/03,11:20,4.0,��,9.3
2021/05/03,11:30,3.9,��,12.4
2021/05/03,11:40,3.9,��,12.7
2021/05/03,11:50,4.0,��,9.8
2021/05/03,12:00,4.0,��,12.5
2021/05/03,12:10,3.9,��,9.3
2021/05/03,12:20,3.8,���쐼,10.2
2021/05/03,12:30,3.8,��,9.3
2021/05/03,12:40,4.0,���쐼,10.8
2021/05/03,12:50,3.9,���쐼,11.4
2021/05/03,13:00,3.8,���쐼,12.4
2021/05/03,13:10,3.8,���쐼,11.8
2021/05/03,13:20,4.0,���쐼,9.8
2021/05/03,13:30,4.0,���쐼,10.8
2021/05/03,13:40,3.9,��,12.7
2021/05/03,13:50,4.0,���쐼,11.0
2021/05/03,14:00,4.0,��,12.7
2021/05/03,14:10,4.0,���쐼,9.7
2021/05/03,14:20,4.0,���쐼,9.8
2021/05/03,14:30,4.0,���쐼,11.3
2021/05/03,14:40,3.8,���쐼,11.3
2021/05/03,14:50,4.0,�쐼,10.9
2021/05/03,15:00,3.8,���쐼,11.9
2021/05/03,15:10,3.8,���쐼,11.3
2021/05/03,15:20,4.0,���쐼,11.1
2021/05/03,15:30,3.9,��,11.6
2021/05/03,15:40,3.8,���쐼,12.7
2021/05/03,15:50,3.9,���쐼,11.0
2021/05/03,16:00,3.9,���쐼,11.4
2021/05/03,16:10,4.0,���쐼,12.2
2021/05/03,16:20,4.0,���쐼,9.7
2021/05/03,16:30,3.8,���쐼,8.1
2021/05/03,16:40,4.1,���쐼,11.4
2021/05/03,16:50,3.8,���쐼,9.0
2021/05/03,17:00,3.9,��,10.9
2021/05/03,17:10,3.9,��,11.0
2021/05/03,17:20,3.9,��,11.6
2021/05/03,17:30,3.9,��,9.8
2021/05/03,17:40,3.9,���쐼,10.5
2021/05/03,17:50,3.9,���쐼,9.0
2021/05/03,18:00,3.9,��,9.3
2021/05/03,18:10,3.9,��,9.5
2021/05/03,18:20,3.9,��,7.1
2021/05/03,18:30,4.0,��,7.8
2021/05/03,18:40,4.0,��,7.2
2021/05/03,18:50,3.9,��,7.6
2021/05/03,19:00,3.9,���쐼,6.9
2021/05/03,19:10,4.0,���쐼,5.7
2021/05/03,19:20,3.8,��,3.6
2021/05/03,19:30,3.9,��,2.5
2021/05/03,19:40,4.0,���쐼,3.0
2021/05/03,19:50,3.8,��,3.6
2021/05/03,20:00,4.0,���쐼,4.7
2021/05/03,20:10,3.9,���쐼,4.5
2021/05/03,20:20,3.9,���쐼,3.0
2021/05/03,20:30,3.9,���쐼,2.9
2021/05/03,20:40,3.9,��,3.3
2021/05/03,20:50,3.9,���k��,4.0
2021/05/03,21:00,3.8,��,2.3
2021/05/03,21:10,4.1,��,1.5
2021/05/03,21:20,3.8,-,CALM
2021/05/03,21:30,3.9,-,CALM
2021/05/03,21:40,3.8,-,CALM
2021/05/03,21:50,3.9,�k�k��,1.1
2021/05/03,22:00,3.8,�k�k��,1.7
2021/05/03,22:10,3.8,-,CALM
2021/05/03,22:20,3.9,��쐼,2.2
2021/05/03,22:30,4.1,��,2.8
2021/05/03,22:40,3.9,�쓌,2.8
2021/05/03,22:50,3.9,��,3.0
2021/05/03,23:00,3.9,�쐼,2.3
2021/05/03,23:10,3.8,���쐼,2.2
2021/05/03,23:20,4.0,��쐼,2.3
2021/05/03,23:30,4.0,��쐼,1.5
2021/05/03,23:40,3.9,�쐼,0.8
2021/05/03,23:50,4.0,�쐼,1.5
